Bern Belp Airport LSZB

Flugplatz Daten

Name: Bern Belp Airport

Ident: LSZB

Lat: 46,91410065

Long: 7,497149944

Platzhöhe: 1674 ft

IataCode: BRN

City: Bern

Homepage: http://www.flughafenbern.ch/

Metar

2021/10/25 19:50
LSZB 251950Z AUTO VRB01KT 6000 NCD 05/05 Q1022

Taf

Gewünschte Webcam nicht vorhanden? Dann fügen Sie eine hinzu. Sie wird dann so schnell wie möglich freigeschaltet
Url: Title: